Tracking 28790 objects as of 19-Apr-2024
HD Live streaming from Space Station
objects crossing your sky now

COSMOS 2251 DEB

Track COSMOS 2251 DEB now!
10-day predictions


NORAD ID: 34546
Int'l Code: 1993-036UG
Perigee: 747.0 km
Apogee: 781.4 km
Inclination: 74.0 °
Period: 100.0 minutes
Semi major axis: 7135 km
RCS: 0.0183 m2 (small)
Launch date: June 16, 1993
Source: Commonwealth of Independent States (former USSR) (CIS)
Launch site: PLESETSK MISSILE AND SPACE COMPLEX (PKMTR)

Note: This is SATELLITE DEBRIS
Your satellite tracking list
Your tracking list is empty




NASA's NSSDC Master Catalog

Two Line Element Set (TLE):
1 34546U 93036UG  24109.63953240  .00005966  00000-0  18783-2 0  9996
2 34546  74.0323 289.7185 0024095 152.2735 326.0209 14.40423798793258
Source of the keplerian elements: AFSPC